Weather History for Evansville, IN

Change the Weather History Date:

Friday, February 1, 2013

  Actual Average Record
Temperature  
Mean Temperature 18 °F 33 °F  
Max Temperature 25 °F 42 °F 71 °F (1911)
Min Temperature 10 °F 25 °F -5 °F (1951)
Degree Days  
Heating Degree Days 47 32  
Month to date heating degree days 47 32  
Since 1 July heating degree days 2612 2811  
Cooling Degree Days 0 0  
Month to date cooling degree days 0 0  
Year to date cooling degree days 0 0  
Moisture  
Dew Point 5 °F    
Average Humidity 57    
Maximum Humidity 67    
Minimum Humidity 47    
Precipitation  
Precipitation T in 0.12 in 2.07 in (1988)
Month to date precipitation T 0.12  
Year to date precipitation 6.77 3.22  
Snow  
Snow T in 0.10 in 8.50 in (1966)
Month to date snowfall T 0.1  
Since 1 July snowfall 11.0 7.0  
Snow Depth 0.00 in    
Sea Level Pressure  
Sea Level Pressure 30.44 in    
Wind  
Wind Speed 7 mph (WSW)    
Max Wind Speed 22 mph    
Max Gust Speed 29 mph    
Visibility 10 miles    
Events Snow    
T = Trace of Precipitation, MM = Missing Value Source: NWS Daily Summary

Daily Weather History Graph

Daily Weather History Graph

Search for Another Location

Airport:

Trip Planner

Search our weather history database for the weather conditions in past years. The results will help you decide how hot, cold, wet, or windy it might be!

Date:

Astronomy

Feb. 01, 2013 Rise Set
Actual Time 6:54 AM CST 5:13 PM CST
Civil Twilight 6:26 AM CST 5:41 PM CST
Nautical Twilight 5:55 AM CST 6:12 PM CST
Astronomical Twilight 5:24 AM CST 6:43 PM CST
Moon 11:13 PM CST (2/1) 9:33 AM CST (2/1)
Length of Visible Light 11h 14m
Length of Day
10h 19m
Waning Gibbous, 70% of the Moon is Illuminated
Feb 1
Waning Gibbous
Feb 3
Last Quarter
Feb 10
New
Feb 17
First Quarter
Feb 25
Full

Hourly Weather History & Observations

Time (CST) Temp. Windchill Dew Point Humidity Pressure Visibility Wind Dir Wind Speed Gust Speed Precip Events Conditions
12:54 AM 15.8 °F -0.6 °F 6.8 °F 68% 30.34 in 9.0 mi NW 18.4 mph 26.5 mph N/A Snow Light Snow
1:54 AM 12.9 °F -3.4 °F -0.0 °F 56% 30.39 in 10.0 mi NW 16.1 mph 24.2 mph 0.00 in   Clear
2:54 AM 12.0 °F -1.3 °F 1.0 °F 61% 30.41 in 10.0 mi NW 10.4 mph - N/A   Clear
3:54 AM 10.9 °F -2.6 °F -0.9 °F 59% 30.42 in 10.0 mi WNW 10.4 mph - N/A   Clear
4:54 AM 10.9 °F 1.4 °F -0.0 °F 61% 30.43 in 10.0 mi NW 5.8 mph - N/A   Clear
5:54 AM 10.4 °F -2.4 °F -0.4 °F 62% 30.43 in 10.0 mi NW 9.2 mph - N/A   Clear
6:54 AM 10.0 °F 0.4 °F -0.0 °F 64% 30.48 in 10.0 mi West 5.8 mph - N/A   Clear
7:54 AM 10.9 °F -0.8 °F 1.0 °F 64% 30.51 in 10.0 mi West 8.1 mph - N/A   Clear
8:54 AM 12.9 °F -0.2 °F 1.0 °F 59% 30.53 in 10.0 mi West 10.4 mph - N/A   Clear
9:54 AM 15.1 °F 3.3 °F 3.0 °F 59% 30.54 in 10.0 mi West 9.2 mph - N/A   Clear
10:54 AM 16.0 °F 7.4 °F 5.0 °F 62% 30.55 in 10.0 mi West 5.8 mph - N/A   Partly Cloudy
11:54 AM 18.0 °F 9.8 °F 5.0 °F 57% 30.53 in 10.0 mi WSW 5.8 mph - N/A   Scattered Clouds
12:54 PM 19.0 °F 10.0 °F 6.1 °F 57% 30.50 in 10.0 mi WSW 6.9 mph - N/A   Clear
1:54 PM 19.9 °F 13.4 °F 3.9 °F 50% 30.48 in 10.0 mi West 4.6 mph - N/A   Clear
2:54 PM 21.0 °F 16.2 °F 5.0 °F 50% 30.47 in 10.0 mi West 3.5 mph - N/A   Clear
3:54 PM 21.0 °F 16.2 °F 7.0 °F 55% 30.46 in 10.0 mi SW 3.5 mph - N/A   Clear
4:54 PM 19.9 °F 12.1 °F 7.0 °F 57% 30.45 in 10.0 mi WSW 5.8 mph - N/A   Clear
5:54 PM 19.9 °F 13.4 °F 6.1 °F 55% 30.40 in 10.0 mi SSE 4.6 mph - N/A   Clear
6:54 PM 21.0 °F - 8.1 °F 57% 30.44 in 10.0 mi Calm Calm - N/A   Clear
7:54 PM 21.9 °F - 9.0 °F 58% 30.41 in 10.0 mi Calm Calm - N/A   Mostly Cloudy
8:54 PM 21.9 °F 15.7 °F 10.9 °F 63% 30.39 in 10.0 mi SE 4.6 mph - N/A   Overcast
9:54 PM 23.0 °F 17.0 °F 10.9 °F 60% 30.37 in 10.0 mi SSE 4.6 mph - N/A   Partly Cloudy
10:54 PM 24.1 °F 18.2 °F 12.0 °F 60% 30.35 in 10.0 mi South 4.6 mph - N/A   Overcast
11:54 PM 25.0 °F 18.1 °F 12.9 °F 60% 30.35 in 10.0 mi South 5.8 mph - N/A   Overcast